H1 CPF 2 NER 2024 11 28 9 333 01 glonass106 H2 0705201 9106 32275 2024 11 28 0 0 0 2024 12 1 23 45 0 900 1 1 0 0 0 1 H9 10 0 60642 0.00000 0 286418.789 -25327408.652 3064165.133 10 0 60642 900.00000 0 118132.632 -24739019.620 6241599.137 10 0 60642 1800.00000 0 51030.220 -23760727.624 9297871.051 10 0 60642 2700.00000 0 135311.259 -22423992.926 12173672.485 10 0 60642 3600.00000 0 413990.506 -20771818.373 14813209.722 10 0 60642 4500.00000 0 920844.586 -18857015.939 17165282.947 10 0 60642 5400.00000 0 1678752.159 -16740082.061 19184275.247 10 0 60642 6300.00000 0 2698497.788 -14486770.486 20831032.683 10 0 60642 7200.00000 0 3978090.387 -12165463.787 22073618.893 10 0 60642 8100.00000 0 5502625.577 -9844452.722 22887930.304 10 0 60642 9000.00000 0 7244698.666 -7589236.117 23258160.613 10 0 60642 9900.00000 0 9165352.037 -5459952.971 23177106.034 10 0 60642 10800.00000 0 11215518.618 -3509052.695 22646305.691 10 0 60642 11700.00000 0 13337902.443 -1779299.505 21676014.509 10 0 60642 12600.00000 0 15469219.173 -302193.110 20285008.867 10 0 60642 13500.00000 0 17542704.289 903129.426 18500228.339 10 0 60642 14400.00000 0 19490785.379 1830465.657 16356259.783 10 0 60642 15300.00000 0 21247807.709 2486570.383 13894672.986 10 0 60642 16200.00000 0 22752699.684 2890628.638 11163219.977 10 0 60642 17100.00000 0 23951466.924 3073201.712 8214912.784 10 0 60642 18000.00000 0 24799410.344 3074691.024 5106997.051 10 0 60642 18900.00000 0 25262974.898 2943385.096 1899841.128 10 0 60642 19800.00000 0 25321150.853 2733172.579 -1344237.811 10 0 60642 20700.00000 0 24966368.043 2501018.597 -4562187.527 10 0 60642 21600.00000 0 24204844.907 2304311.893 -7691450.321 10 0 60642 22500.00000 0 23056376.990 2198195.872 -10671183.970 10 0 60642 23400.00000 0 21553573.357 2232997.418 -13443449.542 10 0 60642 24300.00000 0 19740572.652 2451863.296 -15954342.402 10 0 60642 25200.00000 0 17671292.539 2888705.082 -18155043.898 10 0 60642 26100.00000 0 15407285.890 3566540.476 -20002772.915 10 0 60642 27000.00000 0 13015293.561 4496301.984 -21461618.677 10 0 60642 27900.00000 0 10564596.146 5676164.127 -22503238.682 10 0 60642 28800.00000 0 8124275.388 7091418.359 -23107408.395 10 0 60642 29700.00000 0 5760499.411 8714901.836 -23262412.346 10 0 60642 30600.00000 0 3533944.644 10507962.779 -22965269.398 10 0 60642 31500.00000 0 1497461.449 12421922.695 -22221788.113 10 0 60642 32400.00000 0 -305920.041 14399974.850 -21046451.397 10 0 60642 33300.00000 0 -1844561.675 16379440.075 -19462132.789 10 0 60642 34200.00000 0 -3099302.222 18294285.974 -17499649.942 10 0 60642 35100.00000 0 -4064011.470 20077804.441 -15197163.930 10 0 60642 36000.00000 0 -4745591.771 21665335.695 -12599435.917 10 0 60642 36900.00000 0 -5163428.424 22996924.894 -9756955.603 10 0 60642 37800.00000 0 -5348313.451 24019800.085 -6724958.338 10 0 60642 38700.00000 0 -5340889.432 24690567.648 -3562350.052 10 0 60642 39600.00000 0 -5189680.249 24977033.151 -330561.106 10 0 60642 40500.00000 0 -4948792.935 24859571.188 2907648.415 10 0 60642 41400.00000 0 -4675388.643 24331986.788 6089408.472 10 0 60642 42300.00000 0 -4427030.352 23401832.291 9152959.862 10 0 60642 43200.00000 0 -4259020.017 22090166.500 12038852.111 10 0 60642 44100.00000 0 -4221838.109 20430766.293 14691095.123 10 0 60642 45000.00000 0 -4358793.989 18468823.767 17058242.298 10 0 60642 45900.00000 0 -4703986.526 16259183.380 19094384.364 10 0 60642 46800.00000 0 -5280661.157 13864192.557 20760035.132 10 0 60642 47700.00000 0 -6100032.856 11351255.152 22022892.531 10 0 60642 48600.00000 0 -7160624.936 8790189.194 22858460.843 10 0 60642 49500.00000 0 -8448152.067 6250498.219 23250522.690 10 0 60642 50400.00000 0 -9935953.188 3798668.883 23191452.115 10 0 60642 51300.00000 0 -11585957.209 1495606.213 22682363.023 10 0 60642 52200.00000 0 -13350142.212 -605687.900 21733090.137 10 0 60642 53100.00000 0 -15172428.324 -2462097.451 20362002.680 10 0 60642 54000.00000 0 -16990926.322 -4041954.813 18595653.897 10 0 60642 54900.00000 0 -18740449.022 -5326118.823 16468272.578 10 0 60642 55800.00000 0 -20355181.251 -6308524.268 14021105.654 10 0 60642 56700.00000 0 -21771397.237 -6996180.579 11301623.830 10 0 60642 57600.00000 0 -22930111.854 -7408620.433 8362604.919 10 0 60642 58500.00000 0 -23779554.459 -7576822.017 5261112.159 10 0 60642 59400.00000 0 -24277361.119 -7541650.866 2057387.025 10 0 60642 60300.00000 0 -24392392.532 -7351887.550 -1186322.010 10 0 60642 61200.00000 0 -24106100.402 -7061925.092 -4406971.734 10 0 60642 62100.00000 0 -23413383.956 -6729234.136 -7541953.494 10 0 60642 63000.00000 0 -22322899.695 -6411703.847 -10530315.019 10 0 60642 63900.00000 0 -20856810.584 -6164971.909 -13313950.338 10 0 60642 64800.00000 0 -19049984.559 -6039857.427 -15838734.014 10 0 60642 65700.00000 0 -16948675.486 -6080006.233 -18055577.150 10 0 60642 66600.00000 0 -14608741.554 -6319848.936 -19921384.258 10 0 60642 67500.00000 0 -12093475.477 -6782958.768 -21399892.240 10 0 60642 68400.00000 0 -9471137.040 -7480879.245 -22462375.280 10 0 60642 69300.00000 0 -6812290.933 -8412471.706 -23088202.086 10 0 60642 70200.00000 0 -4187060.658 -9563810.836 -23265235.006 10 0 60642 71100.00000 0 -1662412.614 -10908633.147 -22990063.615 10 0 60642 72000.00000 0 700416.983 -12409320.106 -22268068.508 10 0 60642 72900.00000 0 2848245.904 -14018375.164 -21113314.339 10 0 60642 73800.00000 0 4737924.528 -15680333.166 -19548274.290 10 0 60642 74700.00000 0 6337887.849 -17334022.436 -17603391.340 10 0 60642 75600.00000 0 7629217.392 -18915084.964 -15316484.857 10 0 60642 76500.00000 0 8606170.025 -20358649.218 -12732013.886 10 0 60642 77400.00000 0 9276153.008 -21602043.481 -9900211.428 10 0 60642 78300.00000 0 9659147.831 -22587435.867 -6876106.493 10 0 60642 79200.00000 0 9786608.528 -23264290.059 -3718452.985 10 0 60642 80100.00000 0 9699882.219 -23591533.484 -488586.435 10 0 60642 81000.00000 0 9448219.708 -23539346.648 2750768.933 10 0 60642 81900.00000 0 9086461.170 -23090498.317 5936719.377 10 0 60642 82800.00000 0 8672495.556 -22241170.271 9007422.976 10 0 60642 83700.00000 0 8264601.699 -21001236.889 11903289.226 10 0 60642 84600.00000 0 7918783.933 -19393987.666 14568133.512 10 0 60642 85500.00000 0 7686215.037 -17455304.124 16950264.066 10 0 60643 0.00000 0 7610894.534 -15232325.548 19003480.450 10 0 60643 900.00000 0 7727621.181 -12781657.669 20687965.672 10 0 60643 1800.00000 0 8060365.128 -10167201.651 21971052.534 10 0 60643 2700.00000 0 8621108.232 -7457689.223 22827853.650 10 0 60643 3600.00000 0 9409201.650 -4724028.664 23241740.753 10 0 60643 4500.00000 0 10411268.036 -2036569.938 23204665.629 10 0 60643 5400.00000 0 11601653.084 537598.235 22717316.614 10 0 60643 6300.00000 0 12943408.316 2937208.175 21789107.686 10 0 60643 7200.00000 0 14389764.901 5109124.634 20438000.171 10 0 60643 8100.00000 0 15886037.776 7010312.731 18690160.086 10 0 60643 9000.00000 0 17371881.328 8609381.525 16579457.102 10 0 60643 9900.00000 0 18783802.923 9887639.729 14146814.077 10 0 60643 10800.00000 0 20057829.549 10839620.266 11439419.003 10 0 60643 11700.00000 0 21132216.023 11473052.433 8509813.884 10 0 60643 12600.00000 0 21950081.002 11808283.404 5414877.747 10 0 60643 13500.00000 0 22461859.739 11877173.999 2214723.162 10 0 60643 14400.00000 0 22627469.778 11721515.767 -1028472.327 10 0 60643 15300.00000 0 22418097.625 11391036.732 -4251676.923 10 0 60643 16200.00000 0 21817530.208 10941080.669 -7392233.485 10 0 60643 17100.00000 0 20822974.011 10430058.681 -10389082.188 10 0 60643 18000.00000 0 19445326.392 9916781.604 -13183952.445 10 0 60643 18900.00000 0 17708886.729 9457786.796 -15722500.323 10 0 60643 19800.00000 0 15650518.694 9104773.115 -17955368.829 10 0 60643 20700.00000 0 13318298.113 8902253.190 -19839150.069 10 0 60643 21600.00000 0 10769702.537 8885522.755 -21337230.429 10 0 60643 22500.00000 0 8069417.774 9079033.288 -22420502.401 10 0 60643 23400.00000 0 5286852.640 9495237.017 -23067929.369 10 0 60643 24300.00000 0 2493465.258 10133953.283 -23266952.720 10 0 60643 25200.00000 0 -239988.177 10982283.279 -23013733.678 10 0 60643 26100.00000 0 -2846168.026 12015076.988 -22313225.483 10 0 60643 27000.00000 0 -5263716.932 13195932.949 -21179074.763 10 0 60643 27900.00000 0 -7439570.615 14478689.079 -19633354.129 10 0 60643 28800.00000 0 -9330918.444 15809342.089 -17706131.253 10 0 60643 29700.00000 0 -10906733.139 17128315.023 -15434882.733 10 0 60643 30600.00000 0 -12148807.066 18372977.724 -12863764.048 10 0 60643 31500.00000 0 -13052253.094 19480314.282 -10042749.710 10 0 60643 32400.00000 0 -13625450.497 20389625.240 -7026660.314 10 0 60643 33300.00000 0 -13889439.632 21045150.726 -3874095.422 10 0 60643 34200.00000 0 -13876792.226 21398503.916 -646293.228 10 0 60643 35100.00000 0 -13630006.163 21410812.162 2594060.584 10 0 60643 36000.00000 0 -13199493.612 21054475.362 5784051.360 10 0 60643 36900.00000 0 -12641248.364 20314467.336 8861757.347 10 0 60643 37800.00000 0 -12014291.611 19189125.140 11767450.948 10 0 60643 38700.00000 0 -11378004.551 17690392.864 14444755.951 10 0 60643 39600.00000 0 -10789460.708 15843509.293 16841738.295 10 0 60643 40500.00000 0 -10300870.619 13686152.096 18911909.466 10 0 60643 41400.00000 0 -9957246.533 11267073.787 20615123.513 10 0 60643 42300.00000 0 -9794385.353 8644285.774 21918350.849 10 0 60643 43200.00000 0 -9837254.507 5882865.416 22796314.469 10 0 60643 44100.00000 0 -10098848.499 3052476.449 23231976.897 10 0 60643 45000.00000 0 -10579564.183 224704.877 23216868.933 10 0 60643 45900.00000 0 -11267121.200 -2529680.114 22751254.152 10 0 60643 46800.00000 0 -12137031.298 -5143427.625 21844126.079 10 0 60643 47700.00000 0 -13153597.455 -7555357.811 20513037.902 10 0 60643 48600.00000 0 -14271401.623 -9712660.986 18783767.620 10 0 60643 49500.00000 0 -15437219.462 -11572848.425 16689824.455 10 0 60643 50400.00000 0 -16592282.436 -13105274.487 14271805.364 10 0 60643 51300.00000 0 -17674792.907 -14292167.324 11576613.341 10 0 60643 52200.00000 0 -18622586.868 -15129125.749 8656551.924 10 0 60643 53100.00000 0 -19375832.448 -15625061.993 5568312.951 10 0 60643 54000.00000 0 -19879650.365 -15801593.295 2371876.884 10 0 60643 54900.00000 0 -20086545.418 -15691908.394 -870653.033 10 0 60643 55800.00000 0 -19958545.766 -15339157.200 -4096259.886 10 0 60643 56700.00000 0 -19468958.808 -14794432.114 -7242241.585 10 0 60643 57600.00000 0 -18603668.537 -14114426.870 -10247434.270 10 0 60643 58500.00000 0 -17361918.509 -13358872.425 -13053406.185 10 0 60643 59400.00000 0 -15756546.335 -12587858.968 -15605598.191 10 0 60643 60300.00000 0 -13813658.724 -11859157.800 -17854388.219 10 0 60643 61200.00000 0 -11571759.786 -11225656.830 -19756058.615 10 0 60643 62100.00000 0 -9080368.278 -10733018.415 -21273647.388 10 0 60643 63000.00000 0 -6398180.968 -10417658.706 -22377666.888 10 0 60643 63900.00000 0 -3590858.244 -10305133.922 -23046676.076 10 0 60643 64800.00000 0 -728523.825 -10409001.644 -23267695.604 10 0 60643 65700.00000 0 2116917.799 -10730205.080 -23036457.948 10 0 60643 66600.00000 0 4874535.010 -11257006.186 -22357488.027 10 0 60643 67500.00000 0 7477079.816 -11965470.363 -21244012.990 10 0 60643 68400.00000 0 9863543.640 -12820482.285 -19717703.038 10 0 60643 69300.00000 0 11981452.503 -13777250.034 -17808248.356 10 0 60643 70200.00000 0 13788806.943 -14783234.188 -15552780.329 10 0 60643 71100.00000 0 15255586.810 -15780420.575 -12995148.176 10 0 60643 72000.00000 0 16364759.235 -16707840.878 -10185065.033 10 0 60643 72900.00000 0 17112748.879 -17504234.743 -7177140.022 10 0 60643 73800.00000 0 17509352.082 -18110741.019 -4029815.192 10 0 60643 74700.00000 0 17577099.844 -18473504.371 -804228.180 10 0 60643 75600.00000 0 17350097.724 -18546087.105 2436977.046 10 0 60643 76500.00000 0 16872392.709 -18291584.167 5630867.975 10 0 60643 77400.00000 0 16195936.898 -17684351.810 8715445.855 10 0 60643 78300.00000 0 15378234.745 -16711276.737 11630848.530 10 0 60643 79200.00000 0 14479773.667 -15372531.873 14320510.390 10 0 60643 80100.00000 0 13561346.759 -13681786.510 16732256.879 10 0 60643 81000.00000 0 12681380.574 -11665861.449 18819312.637 10 0 60643 81900.00000 0 11893380.399 -9363842.857 20541204.120 10 0 60643 82800.00000 0 11243600.338 -6825691.125 21864539.748 10 0 60643 83700.00000 0 10769035.744 -4110401.835 22763653.108 10 0 60643 84600.00000 0 10495821.997 -1283794.385 23221097.386 10 0 60643 85500.00000 0 10438106.510 1583980.826 23227981.927 10 0 60644 0.00000 0 10597441.053 4421114.038 22784144.854 10 0 60644 900.00000 0 10962719.984 7156878.349 21898158.156 10 0 60644 1800.00000 0 11510666.867 9724326.038 20587165.698 10 0 60644 2700.00000 0 12206849.672 12062833.133 18876556.081 10 0 60644 3600.00000 0 13007182.220 14120383.651 16799476.554 10 0 60644 4500.00000 0 13859849.381 15855500.764 14396196.523 10 0 60644 5400.00000 0 14707575.513 17238744.847 11713332.208 10 0 60644 6300.00000 0 15490141.084 18253716.420 8802946.769 10 0 60644 7200.00000 0 16147041.553 18897522.456 5721542.823 10 0 60644 8100.00000 0 16620176.350 19180686.906 2528966.565 10 0 60644 9000.00000 0 16856454.089 19126509.596 -712755.320 10 0 60644 9900.00000 0 16810203.385 18769900.834 -3940623.121 10 0 60644 10800.00000 0 16445286.571 18155741.286 -7091892.107 10 0 60644 11700.00000 0 15736825.997 17336836.767 -10105296.641 10 0 60644 12600.00000 0 14672468.857 16371554.806 -12922245.943 10 0 60644 13500.00000 0 13253135.958 15321243.322 -15487967.651 10 0 60644 14400.00000 0 11493221.641 14247540.896 -17752576.436 10 0 60644 15300.00000 0 9420235.287 13209692.652 -19672046.518 10 0 60644 16200.00000 0 7073898.354 12261985.337 -21209068.996 10 0 60644 17100.00000 0 4504733.816 11451409.912 -22333777.373 10 0 60644 18000.00000 0 1772206.160 10815650.241 -23024327.311 10 0 60644 18900.00000 0 -1057511.138 10381482.438 -23267319.636 10 0 60644 19800.00000 0 -3914048.249 10163651.998 -23058058.721 10 0 60644 20700.00000 0 -6725527.672 10164275.632 -22400641.487 10 0 60644 21600.00000 0 -9421317.670 10372792.551 -21307875.545 10 0 60644 22500.00000 0 -11934736.515 10766466.832 -19801028.214 10 0 60644 23400.00000 0 -14205595.644 11311419.313 -17909411.308 10 0 60644 24300.00000 0 -16182476.565 11964145.172 -15669809.729 10 0 60644 25200.00000 0 -17824647.436 12673452.921 -13125764.861 10 0 60644 26100.00000 0 -19103540.243 13382742.727 -10326726.623 10 0 60644 27000.00000 0 -20003727.824 14032527.669 -7327090.648 10 0 60644 27900.00000 0 -20523360.993 14563091.186 -4185139.322 10 0 60644 28800.00000 0 -20674048.523 14917168.201 -961907.468 10 0 60644 29700.00000 0 -20480186.240 15042536.329 2280005.003 10 0 60644 30600.00000 0 -19977764.552 14894407.404 5477650.157 10 0 60644 31500.00000 0 -19212705.643 14437517.953 8568954.751 10 0 60644 32400.00000 0 -18238801.227 13647830.016 11493924.665 10 0 60644 33300.00000 0 -17115338.413 12513770.137 14195807.506 10 0 60644 34200.00000 0 -15904514.111 11036953.878 16622190.838 10 0 60644 35100.00000 0 -14668746.975 9232364.742 18726014.988 10 0 60644 36000.00000 0 -13467999.930 7127979.263 20466481.195 10 0 60644 36900.00000 0 -12357225.488 4763853.064 21809838.044 10 0 60644 37800.00000 0 -11384040.701 2190705.082 22730031.582 10 0 60644 38700.00000 0 -10586728.731 -531942.181 23209207.167 10 0 60644 39600.00000 0 -9992650.241 -3337990.134 23238053.825 10 0 60644 40500.00000 0 -9617130.673 -6157267.956 22815984.824 10 0 60644 41400.00000 0 -9462869.578 -8918210.102 21951151.057 10 0 60644 42300.00000 0 -9519896.522 -11550597.424 20660286.855 10 0 60644 43200.00000 0 -9766075.291 -13988249.177 18968390.798 10 0 60644 44100.00000 0 -10168135.317 -16171554.986 16908247.109 10 0 60644 45000.00000 0 -10683187.151 -18049742.203 14519796.165 10 0 60644 45900.00000 0 -11260658.508 -19582784.790 11849365.564 10 0 60644 46800.00000 0 -11844569.544 -20742874.555 8948775.921 10 0 60644 47700.00000 0 -12376051.560 -21515393.495 5874338.180 10 0 60644 48600.00000 0 -12796002.747 -21899346.778 2685761.598 10 0 60644 49500.00000 0 -13047768.501 -21907238.387 -555006.558 10 0 60644 50400.00000 0 -13079732.468 -21564394.847 -3784986.800 10 0 60644 51300.00000 0 -12847707.975 -20907765.751 -6941394.906 10 0 60644 52200.00000 0 -12317027.769 -19984251.937 -9962866.713 10 0 60644 53100.00000 0 -11464242.587 -18848632.173 -12790655.709 10 0 60644 54000.00000 0 -10278355.599 -17561176.209 -15369779.569 10 0 60644 54900.00000 0 -8761539.351 -16185045.262 -17650092.832 10 0 60644 55800.00000 0 -6929303.759 -14783589.914 -19587264.454 10 0 60644 56700.00000 0 -4810106.838 -13417659.531 -21143641.115 10 0 60644 57600.00000 0 -2444423.367 -12143036.652 -22288979.472 10 0 60644 58500.00000 0 116690.551 -11008104.241 -23001033.319 10 0 60644 59400.00000 0 2813477.934 -10051843.711 -23265984.496 10 0 60644 60300.00000 0 5579728.742 -9302247.436 -23078709.512 10 0 60644 61200.00000 0 8345302.049 -8775211.929 -22442876.965 10 0 60644 62100.00000 0 11038818.173 -8473957.535 -21370874.112 10 0 60644 63000.00000 0 13590409.300 -8388998.282 -19883564.121 10 0 60644 63900.00000 0 15934414.612 -8498662.429 -18009878.759 10 0 60644 64800.00000 0 18011908.262 -8770141.050 -15786254.393 10 0 60644 65700.00000 0 19772955.441 -9161019.805 -13255922.140 10 0 60644 66600.00000 0 21178503.048 -9621228.687 -10468065.925 10 0 60644 67500.00000 0 22201826.702 -10095326.885 -7476864.791 10 0 60644 68400.00000 0 22829474.423 -10525025.776 -4340438.092 10 0 60644 69300.00000 0 23061668.311 -10851842.945 -1119714.309 10 0 60644 70200.00000 0 22912148.341 -11019774.602 2122754.306 10 0 60644 71100.00000 0 22407465.829 -10977872.994 5324007.916 10 0 60644 72000.00000 0 21585757.166 -10682619.467 8421902.123 10 0 60644 72900.00000 0 20495050.259 -10099992.486 11356313.861 10 0 60644 73800.00000 0 19191175.574 -9207142.895 14070306.590 10 0 60644 74700.00000 0 17735370.121 -7993605.265 16511232.189 10 0 60644 75600.00000 0 16191675.319 -6461993.743 18631748.401 10 0 60644 76500.00000 0 14624238.017 -4628152.414 20390732.521 10 0 60644 77400.00000 0 13094627.679 -2520753.009 21754074.121 10 0 60644 78300.00000 0 11659281.727 -180355.755 22695332.106 10 0 60644 79200.00000 0 10367185.415 2342028.601 23196244.003 10 0 60644 80100.00000 0 9257882.636 4986816.880 23247078.131 10 0 60644 81000.00000 0 8359900.124 7688094.832 22846822.207 10 0 60644 81900.00000 0 7689650.256 10376129.892 22003204.866 10 0 60644 82800.00000 0 7250857.778 12980052.132 20732549.542 10 0 60644 83700.00000 0 7034533.955 15430593.142 19059463.164 10 0 60644 84600.00000 0 7019498.921 17662769.940 17016365.072 10 0 60644 85500.00000 0 7173430.110 19618402.967 14642864.592 10 0 60645 0.00000 0 7454392.591 21248363.688 11984998.778 10 0 60645 900.00000 0 7812787.041 22514459.189 9094342.913 10 0 60645 1800.00000 0 8193632.758 23390873.043 6027014.093 10 0 60645 2700.00000 0 8539089.716 23865105.093 2842582.142 10 0 60645 3600.00000 0 8791112.441 23938368.481 -397087.630 10 0 60645 4500.00000 0 8894123.113 23625428.146 -3629038.490 10 0 60645 5400.00000 0 8797590.056 22953887.465 -6790449.204 10 0 60645 6300.00000 0 8458401.671 21962953.138 -9819859.426 10 0 60645 7200.00000 0 7842934.273 20701730.515 -12658369.083 10 0 60645 8100.00000 0 6928725.301 19227121.418 -15250787.846 10 0 60645 9000.00000 0 5705679.940 17601413.249 -17546711.851 10 0 60645 9900.00000 0 4176759.010 15889661.179 -19501506.313 10 0 60645 10800.00000 0 2358117.886 14156973.750 -21077174.782 10 0 60645 11700.00000 0 278689.376 12465816.103 -22243098.171 10 0 60645 12600.00000 0 -2020773.100 10873444.060 -22976629.275 10 0 60645 13500.00000 0 -4489152.978 9429576.515 -23263531.571 10 0 60645 14400.00000 0 -7066868.737 8174403.345 -23098254.027 10 0 60645 15300.00000 0 -9688134.331 7137011.750 -22484036.893 10 0 60645 16200.00000 0 -12283488.332 6334296.212 -21432846.639 10 0 60645 17100.00000 0 -14782486.994 5770396.887 -19965141.428 10 0 60645 18000.00000 0 -17116449.535 5436688.975 -18109471.723 10 0 60645 18900.00000 0 -19221141.676 5312322.502 -15901923.728 10 0 60645 19800.00000 0 -21039286.012 5365288.752 -13385416.387 10 0 60645 20700.00000 0 -22522794.829 5553967.505 -10608865.526 10 0 60645 21600.00000 0 -23634632.586 5829088.911 -7626231.360 10 0 60645 22500.00000 0 -24350230.677 6136026.422 -4495467.919 10 0 60645 23400.00000 0 -24658395.810 6417323.160 -1277394.994 10 0 60645 24300.00000 0 -24561674.609 6615344.300 1965485.177 10 0 60645 25200.00000 0 -24076159.859 6674942.740 5170203.254 10 0 60645 26100.00000 0 -23230747.276 6546024.827 8274546.116 10 0 60645 27000.00000 0 -22065874.720 6185907.215 11218264.204 10 0 60645 27900.00000 0 -20631797.454 5561364.834 13944239.280 10 0 60645 28800.00000 0 -18986472.311 4650283.102 16399589.921 10 0 60645 29700.00000 0 -17193139.868 3442844.206 18536693.542 10 0 60645 30600.00000 0 -15317706.008 1942196.895 20314105.541 10 0 60645 31500.00000 0 -13426032.381 164580.873 21697358.238 10 0 60645 32400.00000 0 -11581248.709 -1861100.356 22659624.818 10 0 60645 33300.00000 0 -9841198.644 -4094241.460 23182236.024 10 0 60645 34200.00000 0 -8256125.139 -6483993.132 23255040.115 10 0 60645 35100.00000 0 -6866691.087 -8971156.360 22876599.521 10 0 60645 36000.00000 0 -5702417.000 -11490435.613 22054220.498 10 0 60645 36900.00000 0 -4780600.130 -13972958.440 20803815.102 10 0 60645 37800.00000 0 -4105759.455 -16348957.863 19149597.776 10 0 60645 38700.00000 0 -3669629.105 -18550506.929 17123621.828 10 0 60645 39600.00000 0 -3451700.009 -20514192.325 14765164.070 10 0 60645 40500.00000 0 -3420286.626 -22183616.128 12119968.779 10 0 60645 41400.00000 0 -3534073.625 -23511621.569 9239364.897 10 0 60645 42300.00000 0 -3744077.080 -24462149.815 6179273.054 10 0 60645 43200.00000 0 -3995937.185 -25011649.926 2999121.314 10 0 60645 44100.00000 0 -4232445.247 -25149982.686 -239309.428 10 0 60645 45000.00000 0 -4396197.608 -24880780.060 -3473087.777 10 0 60645 45900.00000 0 -4432263.541 -24221244.952 -6639358.177 10 0 60645 46800.00000 0 -4290753.376 -23201399.521 -9676566.899 10 0 60645 47700.00000 0 -3929177.195 -21862813.578 -12525663.178 10 0 60645 48600.00000 0 -3314493.259 -20256866.639 -15131251.585 10 0 60645 49500.00000 0 -2424758.400 -18442616.778 -17442672.684 10 0 60645 50400.00000 0 -1250309.522 -16484366.094 -19414990.618 10 0 60645 51300.00000 0 205574.815 -14449025.120 -21009868.217 10 0 60645 52200.00000 0 1926561.771 -12403386.894 -22196312.660 10 0 60645 53100.00000 0 3883706.433 -10411424.910 -22951277.315 10 0 60645 54000.00000 0 6036431.383 -8531727.916 -23260108.357 10 0 60645 54900.00000 0 8334003.620 -6815178.536 -23116827.762 10 0 60645 55800.00000 0 10717447.927 -5302972.242 -22524247.482 10 0 60645 56700.00000 0 13121817.535 -4025058.746 -21493912.788 10 0 60645 57600.00000 0 15478727.959 -2999070.050 -20045875.989 10 0 60645 58500.00000 0 17719048.755 -2229778.937 -18208304.974 10 0 60645 59400.00000 0 19775641.302 -1709109.375 -16016934.112 10 0 60645 60300.00000 0 21586028.642 -1416697.140 -13514368.093 10 0 60645 61200.00000 0 23094886.120 -1320975.846 -10749252.146 10 0 60645 62100.00000 0 24256248.944 -1380741.450 -7775324.796 10 0 60645 63000.00000 0 25035344.583 -1547128.191 -4650371.542 10 0 60645 63900.00000 0 25409973.538 -1765911.541 -1435100.061 10 0 60645 64800.00000 0 25371381.012 -1980040.015 1808040.992 10 0 60645 65700.00000 0 24924583.347 -2132288.064 5016076.320 10 0 60645 66600.00000 0 24088136.003 -2167917.208 8126727.495 10 0 60645 67500.00000 0 22893353.348 -2037232.402 11079621.637 10 0 60645 68400.00000 0 21383013.417 -1697925.110 13817461.642 10 0 60645 69300.00000 0 19609602.357 -1117103.728 16287135.234 10 0 60645 70200.00000 0 17633172.365 -272925.297 18440741.530 10 0 60645 71100.00000 0 15518902.805 844240.745 20236515.627 10 0 60645 72000.00000 0 13334466.360 2231166.322 21639633.778 10 0 60645 72900.00000 0 11147309.848 3871663.877 22622884.219 10 0 60645 73800.00000 0 9021962.553 5737036.132 23167191.258 10 0 60645 74700.00000 0 7017483.557 7787058.729 23261983.035 10 0 60645 75600.00000 0 5185153.573 9971455.945 22905396.211 10 0 60645 76500.00000 0 3566506.440 12231809.268 22104313.771 10 0 60645 77400.00000 0 2191781.428 14503820.515 20874235.106 10 0 60645 78300.00000 0 1078859.926 16719836.452 19238980.531 10 0 60645 79200.00000 0 232730.085 18811530.750 17230235.360 10 0 60645 80100.00000 0 -354498.911 20712632.244 14886941.688 10 0 60645 81000.00000 0 -703034.211 22361586.253 12254548.859 10 0 60645 81900.00000 0 -844312.427 23704038.027 9384136.449 10 0 60645 82800.00000 0 -819434.710 24695034.443 6331426.190 10 0 60645 83700.00000 0 -677190.166 25300851.538 3155701.668 10 0 60645 84600.00000 0 -471751.515 25500370.825 -81343.385 10 0 60645 85500.00000 0 -260140.911 25285946.164 -3316805.639 99